Home > Weather > Gander > Past weeks

Flag for Canada Weather for the Past 2 Weeks in Gander, Newfoundland and Labrador, Canada

Now
16 °F

Passing clouds.


Feels Like: 0 °F
Forecast: 8 / 22 °F
Wind: 16 mph from West

Location: Gander Int. Airport

Current Time: Feb 8, 2016 at 2:37:21 AM

Latest Report: Feb 8, 2016 at 1:30 AM


Visibility: 15 mi

Pressure: 29.91 "Hg

Humidity: 67%

Dew point: 7 °F

Location of GanderLocation

Historic Weather in Gander — Graph

°F

Gander Temperature Yesterday

Maximum temperature yesterday: 28 °F (at 7:30 PM)
Minimum temperature yesterday: 14 °F (at 2:30 AM)
Average temperature yesterday: 22 °F

High & Low Weather Summary for the Past Weeks

 TemperatureHumidityPressure
High43 °F (Feb 1, 9:30 PM)100% (Feb 1, 8:30 PM)30.34 "Hg (Feb 1, 8:30 PM)
Low7 °F (Jan 25, 10:30 PM)45% (Feb 3, 1:30 PM)28.87 "Hg (Jan 30, 4:30 AM)
Average24 °F80%29.82 "Hg
* Reported Jan 24 1:30 AM — Feb 8 1:30 AM, Gander, Weather by CustomWeather, © 2016

Note: Actual official high and low records may vary slightly from our data, if they occured in-between our weather recording intervals... More about our weather records

Advertising

Gander Weather History for the Previous 24 Hours

 ConditionsComfort  
Time TempWeatherWind HumidityBarometerVisibility
1:30 AM
Mon, Feb 8
16 °FPassing clouds.16 mph67%29.91 "Hg15 mi
12:30 AM16 °FPassing clouds.15 mph57%29.90 "Hg15 mi
11:30 PM
Sun, Feb 7
19 °FSnow flurries. Passing clouds.30 mph68%29.87 "Hg12 mi
10:30 PM23 °FSnow flurries. Passing clouds.23 mph68%29.80 "Hg15 mi
9:30 PM28 °FSnow flurries. Mostly cloudy.22 mph93%29.80 "Hg1 mi
8:30 PM28 °FSnow flurries. Passing clouds.21 mph86%29.80 "Hg6 mi
7:30 PM28 °FSnow flurries. Mostly cloudy.23 mph86%29.82 "Hg3 mi
6:30 PM27 °FSnow flurries. Mostly cloudy.20 mph93%29.86 "Hg3 mi
5:30 PM27 °FSnow flurries. Mostly cloudy.17 mph86%29.89 "Hg3 mi
4:30 PM27 °FSnow flurries. Mostly cloudy.20 mph80%29.91 "Hg15 mi
3:30 PM27 °FSnow flurries. Mostly cloudy.20 mph80%29.93 "Hg3 mi
2:30 PM25 °FSnow flurries. Mostly cloudy.16 mph86%29.97 "Hg15 mi
2:18 PM25 °FSnow flurries. Mostly cloudy.14 mph80%29.98 "Hg15 mi
1:30 PM25 °FMostly cloudy.15 mph80%30.01 "Hg20 mi
12:30 PM25 °FMostly cloudy.17 mph69%30.04 "Hg20 mi
11:30 AM23 °FMostly cloudy.13 mph74%30.06 "Hg20 mi
10:30 AM23 °FPartly sunny.10 mph74%30.09 "Hg20 mi
9:30 AM21 °FPartly sunny.5 mph74%30.09 "Hg20 mi
8:30 AM19 °FPassing clouds.10 mph79%30.10 "Hg20 mi
7:30 AM19 °FPartly sunny.7 mph79%30.11 "Hg20 mi
6:30 AM18 °FPassing clouds.9 mph79%30.11 "Hg20 mi
5:30 AM16 °FPassing clouds.12 mph79%30.11 "Hg20 mi
4:30 AM18 °FSnow flurries. Overcast.14 mph79%30.11 "Hg20 mi
3:30 AM16 °FPassing clouds.12 mph79%30.10 "Hg20 mi
2:30 AM14 °FPassing clouds.15 mph85%30.09 "Hg20 mi
Weather by CustomWeather, © 2016

See weather overviewHow to use our weather pages